Weather History for KTYQ - August, 2014

Change the Weather History Date:

Saturday, August 16, 2014

  Actual Average (KEYE) Record (KEYE)
Temperature  
Mean Temperature 64 °F 74 °F  
Max Temperature 74 °F 83 °F 89 °F (2007)
Min Temperature 53 °F 65 °F 54 °F (2004)
Degree Days  
Heating Degree Days 2 0  
Month to date heating degree days 0  
Since 1 June heating degree days 15  
Since 1 July heating degree days 1  
Cooling Degree Days 0 9  
Month to date cooling degree days 156  
Year to date cooling degree days 792  
Since 1 June cooling degree days 708  
Growing Degree Days 14 (Base 50)    
Moisture  
Dew Point 60 °F    
Average Humidity 84    
Maximum Humidity 90    
Minimum Humidity 75    
Precipitation  
Precipitation 0.30 in 0.10 in 1.05 in (2012)
Month to date precipitation 1.51  
Year to date precipitation 26.97  
Sea Level Pressure  
Sea Level Pressure 30.00 in    
Wind  
Wind Speed 3 mph (SSW)    
Max Wind Speed 13 mph    
Max Gust Speed 16 mph    
Visibility 9 miles    
Events Rain    
T = Trace of Precipitation, MM = Missing Value Source: NWS Daily Summary

Daily Weather History Graph

Daily Weather History Graph

Search for Another Location

Airport or City:

Trip Planner

Search our weather history database for the weather conditions in past years. The results will help you decide how hot, cold, wet, or windy it might be!

Date:

Astronomy

Aug. 16, 2014 Rise Set
Actual Time 6:57 AM EDT 8:40 PM EDT
Civil Twilight 6:28 AM EDT 9:09 PM EDT
Nautical Twilight 5:53 AM EDT 9:44 PM EDT
Astronomical Twilight 5:15 AM EDT 10:21 PM EDT
Moon No Moon Rise 1:43 PM EDT (8/16)
Length of Visible Light 14h 40m
Length of Day
13h 42m
Waning Gibbous, 59% of the Moon is Illuminated
Aug 16
Waning Gibbous
Aug 17
Last Quarter
Aug 25
New
Sep 2
First Quarter
Sep 8
Full

Hourly Weather History & Observations

Time (EDT) Temp. Dew Point Humidity Pressure Visibility Wind Dir Wind Speed Gust Speed Precip Events Conditions
12:15 AM 54.3 °F 50.7 °F 88% 30.03 in 10.0 mi Calm Calm - N/A   Clear
12:35 AM 54.0 °F 50.5 °F 88% 30.03 in 10.0 mi Calm Calm - N/A   Clear
1:15 AM 53.6 °F 50.4 °F 89% 30.03 in 10.0 mi Calm Calm - N/A   Clear
1:35 AM 53.6 °F 50.2 °F 88% 30.03 in 10.0 mi Calm Calm - N/A   Clear
1:55 AM 53.8 °F 50.5 °F 89% 30.03 in 10.0 mi Calm Calm - N/A   Clear
2:15 AM 53.6 °F 50.5 °F 89% 30.02 in 10.0 mi Calm Calm - N/A   Clear
2:35 AM 54.0 °F 50.9 °F 89% 30.01 in 10.0 mi Calm Calm - N/A   Clear
2:55 AM 53.6 °F 50.2 °F 88% 30.01 in 10.0 mi Calm Calm - N/A   Clear
3:15 AM 53.6 °F 50.4 °F 89% 30.00 in 10.0 mi Calm Calm - N/A   Clear
3:35 AM 53.4 °F 50.2 °F 89% 29.99 in 10.0 mi Calm Calm - N/A   Clear
3:55 AM 53.6 °F 50.5 °F 89% 29.99 in 10.0 mi Calm Calm - N/A   Clear
4:15 AM 53.1 °F 50.0 °F 89% 29.99 in 10.0 mi Calm Calm - N/A   Clear
4:35 AM 53.6 °F 50.7 °F 90% 29.99 in 10.0 mi Calm Calm - N/A   Clear
4:55 AM 53.6 °F 50.5 °F 89% 29.99 in 10.0 mi Calm Calm - N/A   Clear
5:15 AM 53.6 °F 50.5 °F 89% 29.99 in 10.0 mi Calm Calm - N/A   Clear
5:35 AM 54.0 °F 51.1 °F 90% 29.99 in 10.0 mi Calm Calm - N/A   Clear
5:55 AM 53.8 °F 50.7 °F 89% 30.00 in 10.0 mi Calm Calm - N/A   Clear
6:15 AM 54.0 °F 50.9 °F 89% 30.00 in 10.0 mi Calm Calm - N/A   Scattered Clouds
6:35 AM 54.7 °F 51.8 °F 90% 30.00 in 10.0 mi Calm Calm - N/A   Mostly Cloudy
6:55 AM 54.7 °F 51.8 °F 90% 30.00 in 10.0 mi Calm Calm - N/A   Scattered Clouds
7:15 AM 54.5 °F 51.4 °F 89% 30.01 in 10.0 mi Calm Calm - N/A   Mostly Cloudy
7:35 AM 56.1 °F 53.1 °F 89% 30.00 in 10.0 mi Calm Calm - N/A   Mostly Cloudy
7:55 AM 58.5 °F 55.0 °F 88% 30.00 in 10.0 mi Calm Calm - N/A   Overcast
8:15 AM 60.4 °F 55.4 °F 83% 30.00 in 10.0 mi Calm Calm - N/A   Overcast
8:35 AM 61.2 °F 55.6 °F 82% 30.00 in 10.0 mi Calm Calm - N/A   Overcast
8:55 AM 63.1 °F 55.4 °F 76% 30.00 in 10.0 mi South 5.8 mph - N/A   Overcast
9:15 AM 63.0 °F 56.3 °F 79% 30.01 in 5.0 mi SSW 8.1 mph - N/A Rain Heavy Rain
9:35 AM 62.2 °F 58.1 °F 86% 30.02 in 3.0 mi South 5.8 mph - 0.07 in Rain Rain
9:55 AM 62.6 °F 58.8 °F 87% 30.00 in 5.0 mi SSE 8.1 mph - 0.10 in Rain Light Rain
10:15 AM 63.5 °F 59.9 °F 88% 30.00 in 5.0 mi South 6.9 mph - N/A   Light Drizzle
10:35 AM 64.0 °F 60.4 °F 88% 30.01 in 3.0 mi SSW 6.9 mph - 0.03 in Rain Rain
10:55 AM 63.9 °F 60.1 °F 87% 30.00 in 1.8 mi South 6.9 mph - 0.18 in Rain Heavy Rain
11:15 AM 64.2 °F 60.6 °F 88% 30.00 in 4.0 mi SSW 5.8 mph - N/A Rain Rain
11:35 AM 65.1 °F 61.5 °F 88% 30.01 in 4.0 mi South 5.8 mph - 0.02 in Rain Rain
11:55 AM 67.3 °F 63.5 °F 88% 30.01 in 7.0 mi SSW 9.2 mph - 0.02 in   Mostly Cloudy
12:15 PM 68.5 °F 63.7 °F 84% 30.01 in 10.0 mi SW 9.2 mph - N/A   Scattered Clouds
12:35 PM 68.4 °F 63.3 °F 84% 30.00 in 10.0 mi SSW 6.9 mph - N/A   Mostly Cloudy
12:55 PM 70.5 °F 64.6 °F 81% 30.00 in 10.0 mi SW 9.2 mph - N/A   Mostly Cloudy
1:15 PM 73.6 °F 66.6 °F 79% 30.00 in 10.0 mi SSW 10.4 mph 16.1 mph N/A   Mostly Cloudy
1:35 PM 73.8 °F 65.5 °F 75% 30.00 in 10.0 mi SW 9.2 mph - N/A   Mostly Cloudy
1:55 PM 72.9 °F 65.1 °F 77% 30.00 in 10.0 mi WSW 12.7 mph - N/A   Mostly Cloudy
2:15 PM 72.9 °F 65.7 °F 78% 30.00 in 10.0 mi SW 6.9 mph - N/A   Overcast
2:35 PM 73.0 °F 66.0 °F 79% 30.00 in 10.0 mi WSW 6.9 mph - N/A Rain Light Rain
2:55 PM 73.9 °F 66.6 °F 78% 29.99 in 10.0 mi SW 5.8 mph - N/A   Overcast
3:15 PM 74.1 °F 66.2 °F 76% 29.99 in 10.0 mi SW 6.9 mph - N/A   Overcast
3:35 PM 73.9 °F 66.4 °F 77% 29.99 in 10.0 mi SW 5.8 mph - N/A   Overcast
3:55 PM 74.3 °F 66.4 °F 76% 29.99 in 10.0 mi WSW 6.9 mph - N/A   Overcast
4:15 PM 74.1 °F 66.9 °F 78% 29.99 in 10.0 mi SW 6.9 mph - N/A   Overcast
4:35 PM 74.3 °F 66.7 °F 77% 29.99 in 10.0 mi SW 8.1 mph - N/A   Overcast
4:55 PM 73.9 °F 66.6 °F 78% 29.99 in 10.0 mi SW 8.1 mph - N/A   Overcast
5:15 PM 74.1 °F 66.6 °F 77% 29.99 in 10.0 mi SSW 4.6 mph - N/A   Overcast
5:35 PM 74.3 °F 66.6 °F 77% 29.98 in 10.0 mi SSW 3.5 mph - N/A   Overcast
5:55 PM 74.3 °F 66.9 °F 78% 29.98 in 10.0 mi South 3.5 mph - N/A   Mostly Cloudy
6:15 PM 74.7 °F 66.7 °F 76% 29.98 in 10.0 mi South 5.8 mph - N/A   Scattered Clouds
6:35 PM 74.5 °F 66.9 °F 77% 29.98 in 10.0 mi South 4.6 mph - N/A   Scattered Clouds
6:55 PM 73.9 °F 67.1 °F 79% 29.98 in 10.0 mi South 3.5 mph - N/A   Scattered Clouds
7:15 PM 73.8 °F 66.9 °F 79% 29.98 in 10.0 mi South 3.5 mph - N/A   Mostly Cloudy
7:35 PM 73.4 °F 67.1 °F 81% 29.98 in 10.0 mi South 3.5 mph - N/A   Mostly Cloudy
7:55 PM 73.6 °F 67.1 °F 80% 29.97 in 10.0 mi South 3.5 mph - N/A   Overcast
8:15 PM 73.4 °F 66.7 °F 80% 29.97 in 10.0 mi South 3.5 mph - N/A   Overcast
8:35 PM 72.5 °F 66.6 °F 82% 29.97 in 10.0 mi Calm Calm - N/A   Overcast
8:55 PM 72.5 °F 66.7 °F 82% 29.96 in 10.0 mi South 4.6 mph - N/A   Mostly Cloudy
9:15 PM 70.7 °F 66.2 °F 86% 29.96 in 7.0 mi SSE 3.5 mph - N/A   Mostly Cloudy
9:35 PM 71.2 °F 66.6 °F 85% 29.97 in 7.0 mi Calm Calm - N/A   Mostly Cloudy
9:55 PM 70.9 °F 66.4 °F 86% 29.98 in 10.0 mi South 3.5 mph - N/A   Overcast
10:15 PM 71.2 °F 65.7 °F 82% 29.98 in 10.0 mi SSW 4.6 mph - N/A   Overcast
10:35 PM 71.2 °F 65.3 °F 81% 29.99 in 10.0 mi SSW 4.6 mph - N/A   Overcast
10:55 PM 71.1 °F 65.3 °F 82% 29.99 in 10.0 mi SSW 3.5 mph - N/A   Overcast
11:15 PM 71.1 °F 65.3 °F 82% 29.99 in 10.0 mi SW 5.8 mph - N/A   Overcast
11:35 PM 70.7 °F 65.3 °F 83% 29.99 in 10.0 mi SSW 6.9 mph - N/A   Overcast
11:55 PM 70.7 °F 64.6 °F 81% 29.99 in 10.0 mi SSW 8.1 mph - N/A   Overcast